CW3442 Weather Reports


time (UTC)temp
C
wind
direction
speed
KPH
gust
KPH
rain 1hr
cm
rain 24hr
cm
rain mn
cm
humidity
%
barometer
mb
20260510110427 10 202 0.0 0.0 0.00 0.00 0.00 85 786.7
20260510100442 10 209 0.0 0.0 0.00 0.00 0.00 92 786.6
20260510090436 10 220 0.0 0.0 0.00 0.00 0.00 92 786.5
20260510080431 10 209 0.0 0.0 0.00 0.00 0.00 92 786.3
20260510070432 10 257 0.0 0.0 0.00 0.00 0.00 92 786.3
20260510060452 10 120 0.0 0.0 0.00 0.00 0.00 91 786.2
20260510050421 10 111 1.6 0.0 0.00 0.00 0.00 86 786.4
20260510040422 11 119 0.0 0.0 0.00 0.00 0.00 83 786.2
20260510030424 10 116 0.0 0.0 0.00 0.00 0.00 82 786.3
20260510020423 11 113 0.0 0.0 0.00 0.00 0.00 80 786.5
20260510010423 11 131 0.0 0.0 0.00 0.00 0.00 76 786.5
20260510000434 12 14 1.6 0.0 0.00 0.00 0.00 72 786.5
20260509230429 13 164 1.6 0.0 0.00 0.00 0.00 63 786.5
20260509220430 15 109 0.0 0.0 0.00 0.00 0.00 54 786.6
20260509210429 17 192 0.0 0.0 0.00 0.00 0.00 37 786.6
20260509200423 18 96 0.0 0.0 0.00 0.00 0.00 32 786.7
20260509190436 18 234 1.6 0.0 0.00 0.00 0.00 25 786.7
20260509180439 18 183 3.2 0.0 0.00 0.00 0.00 25 786.9
20260509170435 17 116 1.6 0.0 0.00 0.00 0.00 28 787.1
20260509160436 16 47 4.8 0.0 0.00 0.00 0.00 29 787.4
20260509150427 16 101 1.6 0.0 0.00 0.00 0.00 33 787.5
20260509140430 13 111 0.0 0.0 0.00 0.00 0.00 41 787.6
20260509130434 11 165 0.0 0.0 0.00 0.00 0.00 48 787.7
20260509120430 7 142 0.0 0.0 0.00 0.00 0.00 59 787.8